TimeEDT,TemperatureF,Dew PointF,Humidity,Sea Level PressureIn,VisibilityMPH,Wind Direction,Wind SpeedMPH,Gust SpeedMPH,PrecipitationIn,Events,Conditions,WindDirDegrees,DateUTC
12:15 AM,28.4,28.4,100,29.04,0.8,WNW,34.5,49.5,N/A,Snow,Light Snow,290,2012-10-30 04:15:00
12:35 AM,28.4,28.4,100,29.04,1.2,WNW,35.7,48.3,N/A,Snow,Light Snow,290,2012-10-30 04:35:00
12:55 AM,28.4,28.4,100,29.02,2.5,WNW,40.3,47.2,N/A,Snow,Light Snow,290,2012-10-30 04:55:00
1:15 AM,28.4,28.4,100,29.03,2.5,WNW,35.7,48.3,N/A,Snow,Light Snow,290,2012-10-30 05:15:00
1:35 AM,28.4,28.4,100,29.02,2.5,WNW,35.7,48.3,N/A,Snow,Light Snow,290,2012-10-30 05:35:00
1:55 AM,28.4,28.4,100,29.01,1.8,WNW,38.0,51.8,N/A,Snow,Light Snow,290,2012-10-30 05:55:00
2:15 AM,26.6,26.6,100,29.02,1.5,WNW,36.8,49.5,N/A,Snow,Light Snow,290,2012-10-30 06:15:00
2:35 AM,26.6,26.6,100,29.02,1.8,WNW,36.8,54.1,N/A,Snow,Light Snow,290,2012-10-30 06:35:00
2:55 AM,26.6,26.6,100,29.04,1.2,WNW,36.8,50.6,N/A,Snow,Light Snow,290,2012-10-30 06:55:00
3:15 AM,26.6,26.6,100,29.04,1.5,WNW,36.8,48.3,N/A,Snow,Light Snow,290,2012-10-30 07:15:00
3:35 AM,26.6,26.6,100,29.04,1.5,West,38.0,48.3,N/A,Snow,Light Snow,280,2012-10-30 07:35:00
3:55 AM,26.6,26.6,100,29.04,7.0,WNW,39.1,46.0,N/A,,Overcast,290,2012-10-30 07:55:00
4:35 AM,26.6,26.6,100,29.04,2.0,West,36.8,47.2,N/A,Snow,Light Snow,280,2012-10-30 08:35:00
4:55 AM,26.6,24.8,93,29.04,1.5,West,41.4,51.8,N/A,Snow,Light Snow,280,2012-10-30 08:55:00
5:15 AM,26.6,24.8,93,29.05,1.8,West,39.1,48.3,N/A,Snow,Light Snow,280,2012-10-30 09:15:00
5:35 AM,26.6,24.8,93,29.06,2.5,West,38.0,50.6,N/A,Snow,Light Snow,280,2012-10-30 09:35:00
5:55 AM,26.6,24.8,93,29.07,4.0,WNW,36.8,47.2,N/A,,Overcast,290,2012-10-30 09:55:00
6:35 AM,26.6,24.8,93,29.08,1.2,WNW,39.1,49.5,N/A,Snow,Light Snow,290,2012-10-30 10:35:00
6:55 AM,26.6,24.8,93,29.06,1.2,West,38.0,50.6,N/A,Snow,Light Snow,280,2012-10-30 10:55:00
7:15 AM,26.6,24.8,93,29.08,1.2,West,38.0,49.5,N/A,Snow,Light Snow,280,2012-10-30 11:15:00
7:35 AM,24.8,24.8,100,29.09,1.5,WNW,38.0,49.5,N/A,Snow,Light Snow,290,2012-10-30 11:35:00
7:55 AM,26.6,24.8,93,29.10,5.0,West,36.8,46.0,N/A,,Overcast,280,2012-10-30 11:55:00
8:15 AM,24.8,24.8,100,29.11,4.0,West,35.7,48.3,N/A,,Overcast,280,2012-10-30 12:15:00
8:35 AM,26.6,24.8,93,29.10,7.0,West,33.4,47.2,N/A,,Overcast,280,2012-10-30 12:35:00
8:55 AM,26.6,24.8,93,29.13,4.0,West,31.1,44.9,N/A,,Overcast,280,2012-10-30 12:55:00
9:15 AM,26.6,24.8,93,29.14,7.0,West,32.2,44.9,N/A,,Overcast,280,2012-10-30 13:15:00
9:35 AM,26.6,24.8,93,29.14,3.0,West,35.7,43.7,N/A,,Overcast,280,2012-10-30 13:35:00
9:55 AM,26.6,24.8,93,29.16,3.0,West,31.1,43.7,N/A,,Overcast,280,2012-10-30 13:55:00
10:15 AM,26.6,24.8,93,29.16,5.0,West,31.1,39.1,N/A,,Overcast,280,2012-10-30 14:15:00
10:35 AM,24.8,24.8,100,29.17,1.0,West,31.1,39.1,N/A,Snow,Light Snow,270,2012-10-30 14:35:00
11:15 AM,24.8,24.8,100,29.20,0.8,West,29.9,36.8,0.01,Snow,Light Snow,280,2012-10-30 15:15:00
11:35 AM,26.6,26.6,100,29.20,1.8,West,26.5,34.5,0.01,Snow,Light Snow,280,2012-10-30 15:35:00
11:55 AM,26.6,26.6,100,29.21,3.0,West,24.2,33.4,N/A,,Overcast,280,2012-10-30 15:55:00
12:15 PM,26.6,26.6,100,29.22,3.0,West,24.2,32.2,N/A,,Overcast,280,2012-10-30 16:15:00
12:55 PM,26.6,26.6,100,29.23,3.0,West,24.2,34.5,N/A,,Overcast,280,2012-10-30 16:55:00
1:15 PM,26.6,26.6,100,29.24,3.0,West,21.9,34.5,N/A,Snow,Light Snow,280,2012-10-30 17:15:00
1:35 PM,26.6,26.6,100,29.25,2.5,West,25.3,32.2,N/A,Snow,Light Snow,270,2012-10-30 17:35:00
1:55 PM,26.6,26.6,100,29.27,5.0,West,21.9,31.1,N/A,,Overcast,280,2012-10-30 17:55:00
2:15 PM,26.6,26.6,100,29.27,5.0,West,23.0,32.2,N/A,Snow,Light Snow,270,2012-10-30 18:15:00
2:35 PM,26.6,26.6,100,29.27,5.0,West,20.7,28.8,N/A,,Overcast,280,2012-10-30 18:35:00
2:55 PM,26.6,26.6,100,29.27,3.0,West,21.9,32.2,N/A,Snow,Light Snow,280,2012-10-30 18:55:00
3:15 PM,26.6,26.6,100,29.28,4.0,West,19.6,29.9,N/A,Snow,Light Snow,280,2012-10-30 19:15:00
3:35 PM,26.6,26.6,100,29.28,2.0,West,24.2,28.8,N/A,Snow,Light Snow,270,2012-10-30 19:35:00
3:55 PM,26.6,26.6,100,29.29,2.5,West,25.3,31.1,N/A,Snow,Light Snow,270,2012-10-30 19:55:00
4:15 PM,26.6,26.6,100,29.31,0.8,West,29.9,36.8,N/A,Snow,Light Snow,270,2012-10-30 20:15:00
4:35 PM,26.6,26.6,100,29.32,1.5,West,25.3,36.8,N/A,Snow,Light Snow,280,2012-10-30 20:35:00
4:55 PM,26.6,26.6,100,29.31,1.5,West,31.1,35.7,N/A,Snow,Light Snow,270,2012-10-30 20:55:00
5:15 PM,26.6,26.6,100,29.34,1.0,West,27.6,34.5,N/A,Snow,Light Snow,270,2012-10-30 21:15:00
5:35 PM,26.6,26.6,100,29.35,1.8,West,27.6,34.5,N/A,Snow,Light Snow,270,2012-10-30 21:35:00
5:55 PM,26.6,26.6,100,29.35,3.0,West,26.5,36.8,N/A,Snow,Light Snow,270,2012-10-30 21:55:00
6:15 PM,26.6,26.6,100,29.36,2.5,West,28.8,38.0,N/A,Snow,Light Snow,270,2012-10-30 22:15:00
6:35 PM,26.6,26.6,100,29.37,4.0,West,27.6,33.4,N/A,Snow,Light Snow,270,2012-10-30 22:35:00
7:15 PM,28.4,26.6,93,29.39,3.0,West,28.8,40.3,N/A,Snow,Light Snow,270,2012-10-30 23:15:00
7:35 PM,28.4,28.4,100,29.39,5.0,West,29.9,36.8,N/A,Snow,Light Snow,270,2012-10-30 23:35:00
8:15 PM,28.4,28.4,100,29.41,4.0,West,25.3,36.8,N/A,Snow,Light Snow,270,2012-10-31 00:15:00
8:35 PM,28.4,28.4,100,29.42,4.0,West,27.6,34.5,N/A,Snow,Light Snow,270,2012-10-31 00:35:00
8:55 PM,28.4,28.4,100,29.43,4.0,West,23.0,32.2,N/A,Snow,Light Snow,270,2012-10-31 00:55:00
9:15 PM,28.4,28.4,100,29.43,4.0,West,29.9,36.8,N/A,Snow,Light Snow,270,2012-10-31 01:15:00
9:35 PM,28.4,28.4,100,29.44,4.0,West,29.9,39.1,N/A,Snow,Light Snow,270,2012-10-31 01:35:00
9:55 PM,28.4,28.4,100,29.45,4.0,West,27.6,34.5,N/A,Snow,Light Snow,270,2012-10-31 01:55:00
10:15 PM,28.4,28.4,100,29.45,4.0,West,28.8,39.1,N/A,Snow,Light Snow,280,2012-10-31 02:15:00
10:35 PM,28.4,28.4,100,29.45,5.0,West,29.9,38.0,N/A,Snow,Light Snow,270,2012-10-31 02:35:00
10:55 PM,28.4,28.4,100,29.45,5.0,West,26.5,39.1,N/A,Snow,Light Snow,270,2012-10-31 02:55:00
11:15 PM,28.4,28.4,100,29.46,5.0,West,28.8,38.0,N/A,Snow,Light Snow,280,2012-10-31 03:15:00
11:35 PM,28.4,28.4,100,29.46,4.0,West,24.2,35.7,N/A,,Overcast,280,2012-10-31 03:35:00
11:55 PM,28.4,28.4,100,29.45,2.0,West,23.0,36.8,N/A,Snow,Light Snow,280,2012-10-31 03:55:00